Location: Bad Salzschlirf
(50.3750°N, 9.3000°E)
Time: 16:52:23
(UTC+02:00)

ISS - Pass Details

Date: 30 May 2020
Orbit: 417 x 420 km, 51.6° (Epoch: 25 May)

Event Time Altitude Azimuth Distance (km) Brightness Sun altitude
Rises 23:10:16 0° 282° (WNW) 2,366 0.7 -12.2°
Reaches altitude 10° 23:13:00 10° 258° (WSW) 1,498 -0.7 -12.4°
Maximum altitude 23:15:01 15° 221° (SW) 1,222 -1.6 -12.6°
Enters shadow 23:16:11 13° 197° (SSW) 1,318 -1.6 -12.6°
